timestamp,wind_dir_avg,wind_spd_avg,wind_spd_max_dir,wind_spd_gust,battery_voltage,lat,long
2024-04-06 00:04:00+00:00,60.0,9.74,60.0,10.89,12.25,47.59359,-54.27349
2024-04-06 00:14:00+00:00,65.0,9.02,65.0,9.03,12.17,47.59359,-54.27349
2024-04-06 00:24:00+00:00,61.0,9.31,55.0,10.1,12.17,47.59359,-54.27349
2024-04-06 00:34:00+00:00,315.0,0.01,60.0,0.0,12.17,47.59359,-54.27349
2024-04-06 00:44:00+00:00,58.0,9.86,55.0,10.27,12.17,47.59359,-54.27349
2024-04-06 00:54:00+00:00,58.0,9.27,50.0,10.36,12.17,47.59359,-54.27349
2024-04-06 01:04:00+00:00,47.0,10.44,45.0,11.49,12.17,47.59359,-54.27349
2024-04-06 01:14:00+00:00,55.0,9.58,54.0,10.16,12.17,47.59359,-54.27349
2024-04-06 01:24:00+00:00,53.0,9.8,53.0,10.39,12.17,47.59359,-54.27349
2024-04-06 01:34:00+00:00,57.0,9.82,56.0,10.35,12.17,47.59359,-54.27349
2024-04-06 01:44:00+00:00,57.0,9.38,50.0,10.55,12.17,47.59359,-54.27349
2024-04-06 01:54:00+00:00,57.0,9.54,58.0,10.02,12.17,47.59359,-54.27349
2024-04-06 02:04:00+00:00,55.0,9.44,53.0,10.29,12.17,47.59359,-54.27349
2024-04-06 02:14:00+00:00,57.0,8.83,57.0,9.31,12.17,47.59359,-54.27349
2024-04-06 02:24:00+00:00,55.0,9.61,56.0,10.17,12.17,47.59359,-54.27349
2024-04-06 02:34:00+00:00,57.0,9.48,59.0,11.02,12.17,47.59359,-54.27349
2024-04-06 02:44:00+00:00,54.0,9.79,51.0,10.45,12.17,47.59359,-54.27349
2024-04-06 02:54:00+00:00,58.0,9.16,54.0,10.28,12.17,47.59359,-54.27349
2024-04-06 03:04:00+00:00,52.0,9.99,57.0,10.54,12.17,47.59359,-54.27349
2024-04-06 03:14:00+00:00,53.0,9.92,50.0,10.71,12.09,47.59359,-54.27349
2024-04-06 03:24:00+00:00,55.0,9.53,47.0,10.67,12.09,47.59359,-54.27349
2024-04-06 03:34:00+00:00,56.0,9.51,55.0,10.28,12.09,47.59359,-54.27349
2024-04-06 03:44:00+00:00,56.0,9.6,55.0,10.37,12.09,47.59359,-54.27349
2024-04-06 03:54:00+00:00,53.0,9.97,45.0,11.65,12.09,47.59359,-54.27349
2024-04-06 04:04:00+00:00,52.0,9.71,46.0,11.55,12.09,47.59359,-54.27349
2024-04-06 04:14:01+00:00,49.0,10.47,41.0,11.76,12.09,47.59359,-54.27349
2024-04-06 04:24:01+00:00,58.0,9.6,56.0,10.15,12.09,47.59359,-54.27349
2024-04-06 04:34:01+00:00,60.0,9.03,55.0,9.68,12.09,47.59359,-54.27349
2024-04-06 04:44:01+00:00,59.0,9.26,53.0,10.4,12.09,47.59359,-54.27349
2024-04-06 04:54:01+00:00,59.0,9.32,49.0,10.61,12.09,47.59359,-54.27349
2024-04-06 05:04:01+00:00,60.0,9.29,53.0,10.5,12.09,47.59359,-54.27349
2024-04-06 05:14:00+00:00,60.0,9.34,56.0,10.09,12.09,47.59359,-54.27349
2024-04-06 05:24:00+00:00,57.0,9.79,58.0,10.25,12.09,47.59359,-54.27349
2024-04-06 05:34:00+00:00,58.0,9.41,56.0,10.28,12.09,47.59359,-54.27349
2024-04-06 05:44:00+00:00,58.0,9.57,53.0,10.43,12.09,47.59359,-54.27349
2024-04-06 05:54:00+00:00,56.0,9.81,52.0,10.33,12.09,47.59359,-54.27349
2024-04-06 06:04:00+00:00,54.0,9.63,51.0,10.59,12.09,47.59359,-54.27349
2024-04-06 06:14:00+00:00,52.0,10.53,54.0,10.82,12.09,47.59359,-54.27349
2024-04-06 06:24:00+00:00,52.0,10.34,53.0,10.61,12.09,47.59359,-54.27349
2024-04-06 06:34:00+00:00,63.0,8.98,55.0,9.8,12.09,47.59359,-54.27349
2024-04-06 06:44:00+00:00,61.0,9.21,57.0,9.97,12.09,47.59359,-54.27349
2024-04-06 06:54:00+00:00,57.0,9.32,55.0,10.3,12.09,47.59359,-54.27349
2024-04-06 07:04:00+00:00,55.0,9.6,53.0,10.72,12.09,47.59359,-54.27349
2024-04-06 07:14:01+00:00,63.0,9.2,59.0,10.27,12.01,47.59359,-54.27349
2024-04-06 07:24:01+00:00,63.0,9.31,57.0,10.54,12.01,47.59359,-54.27349
2024-04-06 07:34:01+00:00,66.0,8.91,63.0,9.49,12.01,47.59359,-54.27349
2024-04-06 07:44:01+00:00,58.0,9.63,61.0,10.77,12.01,47.59359,-54.27349
2024-04-06 07:54:01+00:00,60.0,9.38,56.0,10.08,12.01,47.59359,-54.27349
2024-04-06 08:04:01+00:00,54.0,9.99,53.0,10.36,12.01,47.59359,-54.27349
2024-04-06 08:14:00+00:00,56.0,9.61,57.0,10.39,12.01,47.59359,-54.27349
2024-04-06 08:24:00+00:00,55.0,9.72,54.0,10.04,12.01,47.59359,-54.27349
2024-04-06 08:34:00+00:00,55.0,10.02,54.0,10.4,12.01,47.59359,-54.27349
2024-04-06 08:44:00+00:00,52.0,9.84,54.0,10.23,12.01,47.59359,-54.27349
2024-04-06 08:54:00+00:00,55.0,10.01,54.0,10.44,12.01,47.59359,-54.27349
2024-04-06 09:04:00+00:00,54.0,9.72,55.0,9.87,12.01,47.59359,-54.27349
2024-04-06 09:14:00+00:00,49.0,10.84,49.0,11.44,11.93,47.59359,-54.27349
2024-04-06 09:24:00+00:00,315.0,0.01,56.0,0.0,11.93,47.59359,-54.27349
2024-04-06 09:34:00+00:00,315.0,0.01,51.0,0.0,11.93,47.59359,-54.27349
2024-04-06 09:44:00+00:00,51.0,10.39,52.0,10.67,11.93,47.59359,-54.27349
2024-04-06 09:54:00+00:00,315.0,0.01,56.0,0.0,11.93,47.59359,-54.27349
2024-04-06 10:04:00+00:00,48.0,10.26,52.0,11.31,11.93,47.59359,-54.27349
2024-04-06 10:14:00+00:00,46.0,10.93,47.0,11.61,12.01,47.59359,-54.27349
2024-04-06 10:24:00+00:00,48.0,10.33,44.0,11.09,12.01,47.59359,-54.27349
2024-04-06 10:34:00+00:00,49.0,10.29,50.0,10.72,12.01,47.59359,-54.27349
2024-04-06 10:44:00+00:00,45.0,9.45,45.0,9.46,12.01,47.59359,-54.27349
2024-04-06 10:54:00+00:00,52.0,10.3,52.0,10.31,12.01,47.59359,-54.27349
2024-04-06 11:04:00+00:00,315.0,0.01,52.0,0.0,12.01,47.59359,-54.27349
2024-04-06 11:14:00+00:00,315.0,0.01,52.0,0.0,12.33,47.59359,-54.27349
2024-04-06 11:24:00+00:00,315.0,0.01,46.0,0.0,12.33,47.59359,-54.27349
2024-04-06 11:34:00+00:00,315.0,0.01,46.0,0.0,12.33,47.59359,-54.27349
2024-04-06 11:44:00+00:00,315.0,0.01,46.0,0.0,12.33,47.59359,-54.27349
2024-04-06 11:54:00+00:00,315.0,0.01,46.0,0.0,12.33,47.59359,-54.27349
2024-04-06 12:04:00+00:00,315.0,0.01,46.0,0.0,12.33,47.59359,-54.27349
2024-04-06 12:14:00+00:00,315.0,0.01,46.0,0.0,13.68,47.59359,-54.27349
2024-04-06 12:24:00+00:00,315.0,0.01,46.0,0.0,13.68,47.59359,-54.27349
2024-04-06 12:34:00+00:00,315.0,0.01,46.0,0.0,13.68,47.59359,-54.27349
2024-04-06 12:44:00+00:00,315.0,0.01,46.0,0.0,13.68,47.59359,-54.27349
2024-04-06 12:54:00+00:00,315.0,0.01,46.0,0.0,13.68,47.59359,-54.27349
2024-04-06 13:04:00+00:00,315.0,0.01,46.0,0.0,13.68,47.59359,-54.27349
2024-04-06 13:14:00+00:00,315.0,0.01,46.0,0.0,13.68,47.59359,-54.27349
2024-04-06 13:24:00+00:00,315.0,0.01,46.0,0.0,13.68,47.59359,-54.27349
2024-04-06 13:34:00+00:00,315.0,0.01,46.0,0.0,13.68,47.59359,-54.27349
2024-04-06 13:44:00+00:00,315.0,0.01,46.0,0.0,13.68,47.59359,-54.27349
2024-04-06 13:54:00+00:00,315.0,0.01,46.0,0.0,13.68,47.59359,-54.27349
2024-04-06 14:04:00+00:00,315.0,0.01,46.0,0.0,13.68,47.59359,-54.27349
2024-04-06 14:14:00+00:00,315.0,0.01,46.0,0.0,13.53,47.59359,-54.27349
2024-04-06 14:24:00+00:00,315.0,0.01,46.0,0.0,13.53,47.59359,-54.27349
2024-04-06 14:34:00+00:00,315.0,0.01,46.0,0.0,13.53,47.59359,-54.27349
2024-04-06 14:44:00+00:00,315.0,0.01,46.0,0.0,13.53,47.59359,-54.27349
2024-04-06 14:54:00+00:00,315.0,0.01,46.0,0.0,13.53,47.59359,-54.27349
2024-04-06 15:04:00+00:00,315.0,0.01,46.0,0.0,13.53,47.59359,-54.27349
2024-04-06 15:14:00+00:00,315.0,0.01,46.0,0.0,13.68,47.59359,-54.27349
2024-04-06 15:24:00+00:00,315.0,0.01,46.0,0.0,13.68,47.59359,-54.27349
2024-04-06 15:34:00+00:00,315.0,0.01,46.0,0.0,13.68,47.59359,-54.27349
2024-04-06 15:44:00+00:00,315.0,0.01,46.0,0.0,13.68,47.59359,-54.27349
2024-04-06 15:54:00+00:00,315.0,0.01,46.0,0.0,13.68,47.59359,-54.27349
2024-04-06 16:04:00+00:00,315.0,0.01,46.0,0.0,13.68,47.59359,-54.27349
2024-04-06 16:14:00+00:00,315.0,0.01,46.0,0.0,13.84,47.59359,-54.27349
2024-04-06 16:24:00+00:00,315.0,0.01,46.0,0.0,13.84,47.59359,-54.27349
2024-04-06 16:34:00+00:00,315.0,0.01,46.0,0.0,13.84,47.59359,-54.27349
2024-04-06 16:44:00+00:00,315.0,0.01,46.0,0.0,13.84,47.59359,-54.27349
2024-04-06 16:54:00+00:00,315.0,0.01,46.0,0.0,13.84,47.59359,-54.27349
2024-04-06 17:04:00+00:00,315.0,0.01,46.0,0.0,13.84,47.59359,-54.27349
2024-04-06 17:14:00+00:00,315.0,0.01,46.0,0.0,13.68,47.59359,-54.27349
2024-04-06 17:24:00+00:00,315.0,0.01,46.0,0.0,13.68,47.59359,-54.27349
2024-04-06 17:34:00+00:00,315.0,0.01,46.0,0.0,13.68,47.59359,-54.27349
2024-04-06 17:44:00+00:00,315.0,0.01,46.0,0.0,13.68,47.59359,-54.27349
2024-04-06 17:54:00+00:00,315.0,0.01,46.0,0.0,13.68,47.59359,-54.27349
2024-04-06 18:04:00+00:00,315.0,0.01,46.0,0.0,13.68,47.59359,-54.27349
2024-04-06 18:14:00+00:00,315.0,0.01,46.0,0.0,13.68,47.59359,-54.27349
2024-04-06 18:24:00+00:00,315.0,0.01,46.0,0.0,13.68,47.59359,-54.27349
2024-04-06 18:34:00+00:00,315.0,0.01,46.0,0.0,13.68,47.59359,-54.27349
2024-04-06 18:44:00+00:00,315.0,0.01,46.0,0.0,13.68,47.59359,-54.27349
2024-04-06 18:54:00+00:00,315.0,0.01,46.0,0.0,13.68,47.59359,-54.27349
2024-04-06 19:04:00+00:00,315.0,0.01,46.0,0.0,13.68,47.59359,-54.27349
2024-04-06 19:14:00+00:00,315.0,0.01,46.0,0.0,13.53,47.59359,-54.27349
2024-04-06 19:24:00+00:00,315.0,0.01,46.0,0.0,13.53,47.59359,-54.27349
2024-04-06 19:34:00+00:00,315.0,0.01,46.0,0.0,13.53,47.59359,-54.27349
2024-04-06 19:44:00+00:00,315.0,0.01,46.0,0.0,13.53,47.59359,-54.27349
2024-04-06 19:54:00+00:00,315.0,0.01,46.0,0.0,13.53,47.59359,-54.27349
2024-04-06 20:04:00+00:00,315.0,0.01,46.0,0.0,13.53,47.59359,-54.27349
2024-04-06 20:14:00+00:00,315.0,0.01,46.0,0.0,13.53,47.59359,-54.27349
2024-04-06 20:24:00+00:00,315.0,0.01,46.0,0.0,13.53,47.59359,-54.27349
2024-04-06 20:34:00+00:00,315.0,0.01,46.0,0.0,13.53,47.59359,-54.27349
2024-04-06 20:44:00+00:00,315.0,0.01,46.0,0.0,13.53,47.59359,-54.27349
2024-04-06 20:54:00+00:00,315.0,0.01,46.0,0.0,13.53,47.59359,-54.27349
2024-04-06 21:04:00+00:00,315.0,0.01,46.0,0.0,13.53,47.59359,-54.27349
2024-04-06 21:14:00+00:00,315.0,0.01,46.0,0.0,13.21,47.59359,-54.27349
2024-04-06 21:24:00+00:00,315.0,0.01,46.0,0.0,13.21,47.59359,-54.27349
2024-04-06 21:34:00+00:00,315.0,0.01,46.0,0.0,13.21,47.59359,-54.27349
2024-04-06 21:44:00+00:00,315.0,0.01,46.0,0.0,13.21,47.59359,-54.27349
2024-04-06 21:54:00+00:00,315.0,0.01,46.0,0.0,13.21,47.59359,-54.27349
2024-04-06 22:04:00+00:00,315.0,0.01,46.0,0.0,13.21,47.59359,-54.27349
2024-04-06 22:14:00+00:00,315.0,0.01,46.0,0.0,12.65,47.59359,-54.27349
2024-04-06 22:24:00+00:00,315.0,0.01,46.0,0.0,12.65,47.59359,-54.27349
2024-04-06 22:34:00+00:00,315.0,0.01,46.0,0.0,12.65,47.59359,-54.27349
2024-04-06 22:44:00+00:00,315.0,0.01,46.0,0.0,12.65,47.59359,-54.27349
2024-04-06 22:54:00+00:00,315.0,0.01,46.0,0.0,12.65,47.59359,-54.27349
2024-04-06 23:04:00+00:00,315.0,0.01,46.0,0.0,12.65,47.59359,-54.27349
2024-04-06 23:14:00+00:00,315.0,0.01,46.0,0.0,12.25,47.59359,-54.27349
2024-04-06 23:24:00+00:00,315.0,0.01,46.0,0.0,12.25,47.59359,-54.27349
2024-04-06 23:34:00+00:00,315.0,0.01,46.0,0.0,12.25,47.59359,-54.27349
2024-04-06 23:44:00+00:00,315.0,0.01,46.0,0.0,12.25,47.59359,-54.27349
2024-04-06 23:54:00+00:00,315.0,0.01,46.0,0.0,12.25,47.59359,-54.27349
